Meath Environmental Platform

Observations for Trim Patrick St

Time AQI Temp °C Hum % Pres Pa CO μg/m³ H₂S μg/m³ NO μg/m³ NO₂ μg/m³ O₃ μg/m³ SO₂ μg/m³ PM1 μg/m³ PM2.5 μg/m³ PM10 μg/m³
Thursday 27 August 2026
06:32 2 17.5 87 38,374 0.22 0 0.91 14.23 37.12 0 25.14 32.89 35.05
06:31 2 17.5 86 38,374 0.22 0.23 1 17.05 30.73 0 26 35.03 37.17
06:30 2 17.5 86 38,374 0.22 0.31 1.06 22.93 38.58 0 26.86 36.37 39.03
06:29 2 17.5 88 38,374 0.22 0 1.26 12.5 35.54 0 26.86 32.78 36.06
06:28 2 17.5 88 38,373 0.22 1.01 1.61 21.49 38.76 0 25.14 32.78 36.06
06:27 2 17.5 88 38,373 0.23 0 1.59 17.97 29.93 0 26 33.45 34.11
06:26 2 17.5 88 38,373 0.23 0.02 1.75 18.62 30.14 0 25.14 34.82 36.02
06:25 2 17.5 88 38,373 0.22 0 1.59 18.31 26.83 0 24.29 33.44 36.78
06:24 2 17.5 88 38,373 0.22 0 2.7 12.32 33.91 0 25.14 32.75 36.03
06:23 2 17.5 88 38,373 0.22 0 1.42 13.99 30.56 0 24.29 32.75 35.34
06:22 2 17.5 88 38,373 0.23 0.12 1.44 14.56 30.91 0 24.29 32.77 34.11
06:20 2 17.4 88 38,372 0.23 0 1.29 10.89 40.42 0 25.14 34.81 35.98
06:19 2 17.5 88 38,371 0.22 0 1.01 12.62 34.73 0 25.14 34.81 37.89
06:18 2 17.4 88 38,371 0.23 0 1.13 14.21 29.73 0 26 34.82 38.3
06:17 2 17.4 87 38,370 0.22 0 1.18 15.89 40.16 0 26 35.57 37.45
06:16 2 17.4 87 38,368 0.23 0.23 1.23 15.63 33.74 0 23.43 32.13 32.3
06:15 2 17.4 87 38,368 0.23 0.1 1.25 19.63 34.52 0 26.86 36.29 36.89
06:14 2 17.4 88 38,365 0.23 0.94 1.29 18.8 33.04 0 26.86 34.82 36.02
06:13 2 17.4 87 38,362 0.24 0 1.46 16.83 31.97 0 25.14 31.43 31.63
06:12 2 17.4 88 38,358 0.24 0 1.34 14.96 31.63 0 25.14 32.75 32.8